User: anonymous   Login
Location: ??
(34.9170°N, 135.5016°E)
Time: 18:52:05
(UTC+00:00)
Language:

Explorer 11/Cluster Stage 4 - Orbit

View from above orbital plane
View from above orbital plane
View from above satellite
View from above satellite

Ground track
Ground track

The orbit data is extracted from the following two-line orbital elements,

1   107U 61013A   21063.51384492  .00000713  00000-0  75327-4 0  9996
2   107  28.7897 152.5381 0546007 318.0757  37.9219 14.09150059  2499
Epoch (UTC): 04 March 2021 12:19:56
Eccentricity: 0.0546007
inclination: 28.7897°
perigee height: 467 km
apogee height: 1257 km
right ascension of ascending node: 152.5381°
argument of perigee: 318.0757°
revolutions per day: 14.09150059
mean anomaly at epoch: 37.9219°
orbit number at epoch: 249

The dashed part of the orbit path shows where the satellite is in the earth's shadow,  

DLR